Regional Weather Roundup
Issued by NWS

Home | Current Version | Previous Version | Graphics & Text | Print | Product List | Glossary On
Versions: 1 2 3 4 5 6 7 8 9 10 11 12 13 14 15 16 17 18 19 20 21 22 23 24 25 26 27 28 29 30 31 32 33 34 35 36 37 38 39 40 41 42 43 44 45 46 47 48 49 50
435
ASUS45 KCYS 291110
RWRWY

WYOMING REGIONAL WEATHER ROUNDUP
NATIONAL WEATHER SERVICE CHEYENNE WY
500 AM MDT MON MAY 29 2017

NOTE:  "FAIR" INDICATES FEW OR NO CLOUDS BELOW 12,000 FEET
WITH NO SIGNIFICANT WEATHER AND/OR OBSTRUCTIONS TO VISIBILITY.

WYZ001-291200-
YELLOWSTONE NATIONAL PARK

CITY           SKY/WX    TMP DP  RH WIND       PRES   REMARKS
LK YELLOWSTONE   N/A     28  28 100 CALM      30.39S
W YELLOWSTONE  NOT AVBL

$$
WYZ002>013-054>058-071-098>099-291200-
NORTHERN WYOMING

CITY           SKY/WX    TMP DP  RH WIND       PRES   REMARKS
JACKSON        FAIR      37  34  87 CALM      30.33S
CODY           FAIR      48  40  73 SW5       30.27F
GREYBULL       FAIR      45  38  76 SE5       30.22F
WORLAND        FAIR      44  44 100 CALM      30.23S
SHERIDAN       MOCLDY    50  41  71 NW10      30.22R
BUFFALO        FAIR      49  37  63 NW8       30.24R
GILLETTE       MOCLDY    43  40  89 W10       30.20R
HULETT         FAIR      45  32  61 W3        30.19S
NEWCASTLE      FAIR      39  37  93 N8        30.19S WCI  34

$$
WYZ014>020-022>026-101>103-291200-
CENTRAL WYOMING

CITY           SKY/WX    TMP DP  RH WIND       PRES   REMARKS
BIG PINEY      FAIR      34  30  85 NW8       30.34S WCI  27
PINEDALE       FAIR      30  30 100 CALM      30.35S
DUBOIS         FAIR      36  32  87 NW9       30.34F WCI  29
LANDER         FAIR      47  37  68 W10       30.27S
RIVERTON       FAIR      45  41  86 W7        30.28R
CASPER         FAIR      44  41  89 W9        30.25S
DOUGLAS        FAIR      42  39  89 N5        30.24S

$$
WYZ021-027>030-104>119-291200-
SOUTHERN WYOMING

CITY           SKY/WX    TMP DP  RH WIND       PRES   REMARKS
EVANSTON       FAIR      42  33  70 E8        30.30R
KEMMERER         N/A     41  34  75 N7        30.33S
FORT BRIDGER   FAIR      43  32  65 MISG      30.33S
ROCK SPRINGS   MOCLDY    43  36  76 E3        30.31S
DIXON            N/A     39  33  78 E3        30.30S
RAWLINS        FAIR      38  34  85 N6        30.31S WCI  33
SARATOGA       FAIR      37  36  93 SE7       30.32F WCI  32
LARAMIE        CLOUDY    38  35  89 S8        30.31F WCI  32
CHEYENNE       MOCLDY    44  36  73 W13       30.26F
TORRINGTON     FAIR      47  40  76 N10       30.18S
PINE BLUFFS    FAIR      41  39  93 MISG      30.23F

$$




USA.gov is the U.S. government's official web portal to all federal, state and local government web resources and services.